Rechercher aéroport 
image banner adimage banner adimage banner ad
image banner ad

67L - Mesquite

Situé à Mesquite, United States

ICAO - 67L, IATA -

Données fournies par Airmate  

Information générale

Coordonnées: N36°49'59" W114°3'21"
Élévation : 1978 feet MSL.
Variation magnétique : 11° East
Voir autres Aéroports à Nevada

Données opérationnelles

Special qualification required
Heure actuelle UTC:
Heure actuelle locale:
Météo à : KSGU - St George Rgnl ( 53 km )
METAR: KSGU 212156Z AUTO VRB04KT 10SM CLR 30/M03 A3025 RMK AO2 SLP211 T03001028
TAF: KSGU 211726Z 2118/2218 VRB04KT P6SM SKC FM212000 28008KT P6SM SKC FM220200 VRB04KT P6SM SKC
Voir NOTAMs / SUP AIP / TFR affectant cet aéroport [VIEW]
Fréquences de communication: [VIEW]

Pistes:

Identifiant RWYQFULongueur (ft)Largeur (ft)SurfaceLDA (ft)
02512175ASPH
20512175ASPH

Coordonnées de l'aéroport

Adresse: Mesquite United States

Vue satellite de 67L